Location: Poughquag
(41.6090°N, 73.6820°W)
Time: 13:42:42
(UTC-04:00)

Courier 1B - Pass Details

Date: 06 June 2020
Orbit: 962 x 1209 km, 28.3° (Epoch: 05 July)

Event Time Altitude Azimuth Distance (km) Brightness Sun altitude
Rises 00:00:11 0° 247° (WSW) 3,851 10.5 -24.5°
Reaches altitude 10° 00:03:14 10° 236° (WSW) 2,936 9.8 -24.6°
Enters shadow 00:03:39 12° 234° (SW) 2,826 9.7 -24.7°
